Weather reports worldwide

Advertisment
Reus, Spain (8175): temperature & dewpoint: 17.10.2019 06:00:00 - 23.10.2019 06:00:00 (CEST)Reus, Spain (8175): wind speed: 17.10.2019 06:00:00 - 23.10.2019 06:00:00 (CEST)Reus, Spain (8175): wind direction: 17.10.2019 06:00:00 - 23.10.2019 06:00:00 (CEST)Reus, Spain (8175): reduced air pressure: 17.10.2019 06:00:00 - 23.10.2019 06:00:00 (CEST)Reus, Spain (8175): visibility: 17.10.2019 06:00:00 - 23.10.2019 06:00:00 (CEST)
Date & Time tt [°C] td [°C] ff [km/h] ff [kn] dd ppp [hPa] vv [km]
23.10.2019 06:00:00 - - - - - - -
23.10.2019 05:00:00 - - - - - - -
23.10.2019 04:00:00 - - - - - - -
23.10.2019 03:00:00 - - - - - - -
23.10.2019 02:00:00 - - - - - - -
23.10.2019 01:00:00 - - - - - - -
23.10.2019 00:00:00 - - - - - - -
22.10.2019 23:00:00 - - - - - - -
22.10.2019 22:00:00 - - - - - - -
22.10.2019 21:00:00 12,6 12,3 29 16 W 1005,6 1,8
22.10.2019 20:00:00 13,9 12,5 35 19 W 1005,1 2,0
22.10.2019 19:00:00 15,8 13,3 16 9 NNW 1005,5 30
22.10.2019 18:00:00 19,7 16,9 31 17 E 1005,9 12
22.10.2019 17:00:00 20,2 16,2 37 20 E 1005,7 20
22.10.2019 16:00:00 19,1 16,1 39 21 ENE 1006,1 30
22.10.2019 15:00:00 14,2 12,9 16 9 SW 1008,0 18
22.10.2019 14:00:00 15,3 13,8 5 3 N 1008,3 6
22.10.2019 13:00:00 15,6 13,8 9 5 NW 1009,3 9
22.10.2019 12:00:00 15,5 13,2 5 3 SE 1010,3 30
22.10.2019 11:00:00 14,2 13,2 15 8 N 1011,2 7
22.10.2019 10:00:00 13,5 13,0 16 9 NNW 1012,6 6
22.10.2019 09:00:00 13,3 12,7 18 10 N 1013,0 2,9
22.10.2019 08:00:00 13,4 12,0 11 6 N 1014,3 5
22.10.2019 07:00:00 13,7 11,6 18 10 NNE 1014,0 30
22.10.2019 06:00:00 13,4 11,5 11 6 NNE 1016,0 9
22.10.2019 05:00:00 13,9 11,6 15 8 N 1016,6 8
22.10.2019 04:00:00 14,4 11,4 15 8 NNE 1017,4 22
22.10.2019 03:00:00 15,3 11,1 13 7 NNE 1017,7 30
22.10.2019 02:00:00 15,1 11,5 15 8 N 1018,1 30
22.10.2019 01:00:00 15,0 11,8 13 7 N 1018,6 30
22.10.2019 00:00:00 15,3 11,3 11 6 NNE 1018,9 23
21.10.2019 23:00:00 15,5 10,7 13 7 NNE 1018,6 30
21.10.2019 22:00:00 15,1 11,0 11 6 N 1018,3 30
21.10.2019 21:00:00 14,9 11,2 11 6 N 1018,7 30
21.10.2019 20:00:00 15,8 11,0 2 1 NNW 1018,4 30
21.10.2019 19:00:00 17,4 10,7 4 2 SE 1018,0 30
21.10.2019 18:00:00 18,0 10,0 13 7 SSE 1017,9 30
21.10.2019 17:00:00 19,0 8,5 13 7 SE 1017,5 30
21.10.2019 16:00:00 20,1 8,1 9 5 S 1017,5 30
21.10.2019 15:00:00 20,9 7,1 9 5 ESE 1017,4 30
21.10.2019 14:00:00 19,6 8,6 5 3 E 1017,5 30
21.10.2019 13:00:00 17,4 9,2 4 2 W 1018,5 30
21.10.2019 12:00:00 14,9 10,1 4 2 E 1018,2 30
21.10.2019 11:00:00 14,4 9,6 0 0 N 1018,1 30
21.10.2019 10:00:00 12,4 9,9 5 3 NE 1017,3 30
21.10.2019 09:00:00 10,9 9,3 4 2 SW 1016,5 18
21.10.2019 08:00:00 10,2 8,5 4 2 N 1015,9 30
21.10.2019 07:00:00 10,3 8,6 0 0 N 1015,5 30
21.10.2019 06:00:00 10,2 8,5 4 2 SE 1015,2 30
21.10.2019 05:00:00 9,8 8,1 4 2 NNE 1014,9 30
21.10.2019 04:00:00 10,2 8,3 2 1 NNE 1014,7 30
21.10.2019 03:00:00 10,3 8,4 8 4 ENE 1014,8 30
21.10.2019 02:00:00 10,8 8,9 5 3 NE 1014,4 30
21.10.2019 01:00:00 11,0 8,6 8 4 ENE 1014,0 30
21.10.2019 00:00:00 12,0 9,6 9 5 NE 1013,7 30
20.10.2019 23:00:00 12,8 10,2 9 5 NNW 1012,9 30
20.10.2019 22:00:00 13,8 12,0 5 3 N 1012,1 30
20.10.2019 21:00:00 15,1 13,0 4 2 N 1011,3 30
20.10.2019 20:00:00 16,4 13,7 9 5 N 1010,7 30
20.10.2019 19:00:00 17,9 13,5 5 3 NNE 1009,5 30
20.10.2019 18:00:00 18,0 13,3 11 6 N 1008,4 30
20.10.2019 17:00:00 17,9 13,1 0 0 N 1008,7 30
20.10.2019 16:00:00 17,5 13,2 5 3 WNW 1009,3 30
20.10.2019 15:00:00 16,8 14,1 8 4 NE 1008,2 30
20.10.2019 14:00:00 16,9 12,9 21 11 W 1008,0 30
20.10.2019 13:00:00 19,9 11,8 22 12 W 1007,7 30
20.10.2019 12:00:00 20,2 12,1 11 6 NW 1006,5 30
20.10.2019 11:00:00 20,6 17,6 13 7 SW 1006,5 21
20.10.2019 10:00:00 21,1 18,7 9 5 S 1006,0 13
20.10.2019 09:00:00 20,4 19,6 0 0 N 1005,3 9
20.10.2019 08:00:00 20,0 19,0 0 0 N 1004,6 8
20.10.2019 07:00:00 19,9 18,7 5 3 SSE 1004,4 9
20.10.2019 06:00:00 20,2 18,7 8 4 S 1004,5 9
20.10.2019 05:00:00 20,2 18,7 11 6 SSE 1004,7 11
20.10.2019 04:00:00 20,2 18,5 13 7 SSE 1005,0 10
20.10.2019 03:00:00 20,0 18,1 11 6 SSE 1006,0 8
20.10.2019 02:00:00 20,1 17,9 8 4 S 1006,6 16
20.10.2019 01:00:00 20,3 17,9 11 6 S 1006,9 15
20.10.2019 00:00:00 20,2 17,8 8 4 SSW 1007,1 10
19.10.2019 23:00:00 20,6 17,4 9 5 S 1007,1 14
19.10.2019 22:00:00 20,5 17,1 11 6 SSW 1007,1 19
19.10.2019 21:00:00 20,3 17,1 5 3 SSW 1007,1 16
19.10.2019 20:00:00 20,1 16,1 4 2 ESE 1007,0 20
19.10.2019 19:00:00 21,1 16,7 9 5 ESE 1006,9 30
19.10.2019 18:00:00 22,4 16,4 8 4 SSW 1006,9 30
19.10.2019 17:00:00 22,9 16,1 13 7 SW 1007,1 30
19.10.2019 16:00:00 24,0 16,5 13 7 S 1007,2 30
19.10.2019 15:00:00 24,8 16,5 16 9 SSW 1007,3 20
19.10.2019 14:00:00 24,9 16,1 16 9 SSW 1007,8 30
19.10.2019 13:00:00 25,3 16,2 9 5 S 1008,5 25
19.10.2019 12:00:00 24,1 16,4 4 2 ESE 1009,3 29
19.10.2019 11:00:00 21,9 15,3 5 3 NE 1009,8 30
19.10.2019 10:00:00 17,1 11,8 11 6 N 1010,1 30
19.10.2019 09:00:00 14,5 11,8 9 5 NNE 1010,1 30
19.10.2019 08:00:00 12,9 11,0 8 4 NNE 1010,0 30
19.10.2019 07:00:00 12,9 10,8 5 3 NE 1010,3 30
19.10.2019 06:00:00 14,5 12,0 13 7 N 1010,0 30
19.10.2019 05:00:00 14,9 10,9 8 4 N 1010,5 30
19.10.2019 04:00:00 15,8 10,5 13 7 N 1010,8 30
19.10.2019 03:00:00 15,9 10,0 11 6 N 1011,7 30
19.10.2019 02:00:00 16,2 10,1 9 5 N 1012,1 30
19.10.2019 01:00:00 16,5 10,3 11 6 N 1012,4 30
19.10.2019 00:00:00 17,3 11,1 11 6 NNE 1012,9 30
18.10.2019 23:00:00 17,4 11,0 11 6 NNE 1013,2 30
18.10.2019 22:00:00 16,6 10,7 11 6 N 1013,4 29
18.10.2019 21:00:00 17,7 10,8 5 3 NE 1013,3 30
18.10.2019 20:00:00 19,0 12,0 4 2 N 1013,4 30
18.10.2019 19:00:00 21,3 13,0 5 3 SSW 1013,2 30
18.10.2019 18:00:00 22,9 11,0 11 6 SW 1013,5 30
18.10.2019 17:00:00 23,8 14,0 11 6 SSW 1013,6 30
18.10.2019 16:00:00 24,7 14,2 15 8 SW 1013,5 30
18.10.2019 15:00:00 24,7 13,9 11 6 SSE 1014,0 30
18.10.2019 14:00:00 24,9 11,5 11 6 SSE 1014,8 30
18.10.2019 13:00:00 23,9 10,6 9 5 SSW 1015,2 30
18.10.2019 12:00:00 23,0 10,2 8 4 S 1015,5 30
18.10.2019 11:00:00 20,9 10,5 4 2 SE 1015,8 30
18.10.2019 10:00:00 18,5 11,3 5 3 S 1015,8 30
18.10.2019 09:00:00 14,5 9,9 11 6 N 1015,7 30
18.10.2019 08:00:00 12,5 8,8 8 4 NE 1015,6 30
18.10.2019 07:00:00 13,7 8,5 11 6 NNE 1015,2 30
18.10.2019 06:00:00 13,0 8,5 8 4 NE 1015,5 30
18.10.2019 05:00:00 13,3 8,6 5 3 NNE 1015,6 30
18.10.2019 04:00:00 15,1 8,8 11 6 N 1015,9 30
18.10.2019 03:00:00 13,9 8,9 9 5 NNE 1016,0 30
18.10.2019 02:00:00 14,2 8,6 4 2 NNE 1016,3 30
18.10.2019 01:00:00 13,9 8,3 4 2 W 1016,8 30
18.10.2019 00:00:00 14,2 8,4 8 4 N 1016,8 30
17.10.2019 23:00:00 14,9 8,4 8 4 NNW 1016,9 30
17.10.2019 22:00:00 16,0 8,5 4 2 N 1016,5 26
17.10.2019 21:00:00 17,9 7,5 5 3 N 1016,1 30
17.10.2019 20:00:00 20,2 5,8 5 3 W 1015,6 30
17.10.2019 19:00:00 22,0 5,6 15 8 W 1014,9 30
17.10.2019 18:00:00 23,1 5,0 13 7 W 1014,6 30
17.10.2019 17:00:00 22,5 11,9 11 6 S 1014,9 30
17.10.2019 16:00:00 26,0 8,6 9 5 SSW 1014,9 25
17.10.2019 15:00:00 25,0 12,5 11 6 SSE 1015,2 30
17.10.2019 14:00:00 24,9 12,2 13 7 SSE 1015,8 30
17.10.2019 13:00:00 24,7 10,5 9 5 SSE 1016,2 30
17.10.2019 12:00:00 24,1 6,7 8 4 SSE 1016,6 30
17.10.2019 11:00:00 21,7 7,1 9 5 ENE 1016,7 30
17.10.2019 10:00:00 17,7 6,4 15 8 N 1016,6 30
17.10.2019 09:00:00 12,8 6,9 9 5 NNE 1016,4 30
17.10.2019 08:00:00 10,2 6,3 4 2 N 1016,3 30
17.10.2019 07:00:00 10,7 6,3 8 4 N 1016,3 30
17.10.2019 06:00:00 11,0 6,7 9 5 NNE 1015,9 30

tt = temperature
td = dewpoint
ff = wind speed
dd = wind direction
ppp = reduced air pressure
vv = visibility

Next stations